Location: Meinert
(37.9441°N, 122.0275°W)
Time: 19:55:29
(UTC+00:00)

Cosmos 1470 - Pass Details

Date: 18 April 2024
Orbit: 490 x 508 km, 82.5° (Epoch: 22 May)

Event Time Altitude Azimuth Distance (km) Brightness Sun altitude
Rises 12:10:51 0° 357° (N) 2,634 6.6 -15.0°
Reaches altitude 10° 12:13:01 10° 1° (N) 1,741 5.7 -14.6°
Maximum altitude 12:16:47 57° 81° (E) 606 3.3 -13.9°
Drops below altitude 10° 12:20:30 10° 161° (SSE) 1,719 5.3 -13.3°
Sets 12:22:38 0° 165° (SSE) 2,595 6.2 -12.9°
